Flag for U.S.A. Weather past 2 weeks in Lakeland, Florida, U.S.A.

Now
79 °F

Overcast.


Feels Like: 82 °F
Forecast: 74 / 89 °F
Wind: 5 mph from South

Location: Lakeland Regional

Current Time: Aug 2, 2014 at 1:06:08 AM

Latest Report: Aug 2, 2014 at 12:35 AM


Visibility: 10 mi

Pressure: 30.00 "Hg

Humidity: 89%

Dew point: 75 °F

Location of LakelandLocation

Historic Weather in Lakeland — Graph

°F

Lakeland temperature yesterday

Maximum temperature yesterday: 91 °F (at 3:50 PM)
Minimum temperature yesterday: 73 °F (at 12:55 AM)
Average temperature yesterday: 80 °F

Past Weeks' High & Low Weather Summary

 TemperatureHumidityPressure
High93 °F (Jul 23, 3:51 PM)100% (Jul 18, 2:15 AM)30.13 "Hg (Jul 18, 2:15 AM)
Low72 °F (Jul 18, 2:15 AM)38% (Jul 31, 2:54 PM)29.93 "Hg (Jul 30, 5:54 PM)
Average79 °F82%30.04 "Hg
* Reported Jul 17 11:15 PM — Aug 1 11:55 PM, Lakeland, Weather by CustomWeather, © 2014

Note: Actual official high and low records may vary slightly from our data, if they occured in-between our weather recording intervals... More about our weather records

Advertising

Lakeland weather history for previous 24 hours

 ConditionsComfort  
Time TempWeatherWind HumidityBarometerVisibility
11:55 PM
Aug 1
79 °FMostly cloudy.No wind84%30.01 "Hg10 mi
11:35 PM79 °FLight rain. Mostly cloudy.No wind89%30.02 "Hg10 mi
11:15 PM79 °FOvercast.No wind89%30.01 "Hg10 mi
10:55 PM79 °FOvercast.3 mph84%30.00 "Hg10 mi
10:15 PM79 °FMostly cloudy.No wind84%30.00 "Hg10 mi
9:51 PM81 °FPassing clouds.No wind79%29.99 "Hg10 mi
8:51 PM82 °FMostly cloudy.7 mph70%29.99 "Hg10 mi
7:51 PM88 °FScattered clouds.6 mph52%29.96 "Hg10 mi
6:51 PM90 °FBroken clouds.5 mph52%29.93 "Hg12 mi
5:56 PM91 °FScattered clouds.6 mph46%29.93 "Hg12 mi
4:56 PM91 °FBroken clouds.3 mph46%29.94 "Hg12 mi
3:50 PM91 °FScattered clouds.6 mph41%29.96 "Hg12 mi
2:50 PM90 °FPartly sunny.5 mph46%29.98 "Hg12 mi
1:50 PM90 °FScattered clouds.No wind46%30.00 "Hg12 mi
12:52 PM88 °FScattered clouds.No wind49%30.00 "Hg12 mi
11:50 AM88 °FSunny.No wind49%30.01 "Hg10 mi
10:50 AM84 °FSunny.No wind55%30.02 "Hg10 mi
9:50 AM82 °FSunny.3 mph58%30.01 "Hg10 mi
8:50 AM81 °FSunny.No wind84%30.00 "Hg10 mi
7:50 AM75 °FSunny.No wind89%29.99 "Hg10 mi
6:50 AM73 °FPassing clouds.No wind94%29.98 "Hg10 mi
5:50 AM73 °FPassing clouds.No wind94%29.97 "Hg10 mi
5:35 AM73 °FClear.No wind89%29.96 "Hg10 mi
5:15 AM73 °FPassing clouds.No wind89%29.95 "Hg10 mi
4:55 AM73 °FPassing clouds.No wind89%29.95 "Hg10 mi
4:35 AM73 °FClear.No wind89%29.95 "Hg10 mi
4:15 AM73 °FPassing clouds.No wind89%29.96 "Hg10 mi
3:55 AM73 °FClear.No wind89%29.95 "Hg10 mi
3:15 AM73 °FClear.No wind89%29.96 "Hg10 mi
2:55 AM73 °FClear.No wind89%29.97 "Hg10 mi
2:35 AM73 °FClear.No wind89%29.98 "Hg10 mi
2:15 AM73 °FClear.No wind89%29.99 "Hg10 mi
1:55 AM73 °FClear.No wind83%29.99 "Hg10 mi
1:15 AM75 °FClear.3 mph78%30.00 "Hg10 mi
Weather by CustomWeather, © 2014

See weather overviewHow to use our weather pages